Powrót do katalogu

QUETZSAT 1

AktywnyŁącznośćGEO
NORAD 37826·PAYLOAD·🇲🇽 Mexico

Wystrzelony Sep 29, 2011 z Baikonur Cosmodrome

Loading…

TLE

ŚwieżeSource: CelesTrak SupGP

Epoka: Sep 13, 2026, 23:44 UTC

1 37826C 11054A   26256.98958333 -.00000164  00000+0  00000+0 0  2562
2 37826   0.0384 289.5493 0002554 254.2812  88.3944  1.00272159    17

Śledź QUETZSAT 1 w czasie rzeczywistym z AllMySat

Download on the App Store